Regional Weather Roundup
Issued by NWS San Angelo, TX

Home | Current Version | Previous Version | Text Only | Print | Product List | Glossary On
Versions: 1 2 3 4 5 6 7 8 9 10 11 12 13 14 15 16 17 18 19 20 21 22 23 24 25 26 27 28 29 30 31 32 33 34 35 36 37 38 39 40 41 42 43 44 45 46 47 48 49 50
000
ASUS44 KSJT 230010
RWRSJT
WEST CENTRAL TEXAS REGIONAL WEATHER ROUNDUP
NATIONAL WEATHER SERVICE SAN ANGELO TX
700 PM CDT MON SEP 22 2014

NOTE: "FAIR" INDICATES FEW OR NO CLOUDS BELOW 12,000 FEET WITH NO
SIGNIFICANT WEATHER AND/OR OBSTRUCTIONS TO VISIBILITY.

TXZ049-054-064>066-071>073-076>078-098-099-113-114-127-128-139-140-
154-155-168>170-230100
...LOCATIONS ACROSS WEST CENTRAL TEXAS...

CITY           SKY/WX    TMP DP  RH WIND       PRES   REMARKS
SAN ANGELO     CLEAR     84  63  49 NE10      30.11S
ABILENE        MOCLDY    84  61  45 E6        30.13R
DYESS AFB      MOCLDY    84  56  38 NE9       30.12R
JUNCTION       PTCLDY    87  59  38 E9        30.09S
SWEETWATER     MOCLDY    78  65  65 CALM      30.19S
BROWNWOOD      CLEAR     82  64  54 E7        30.11R
COLEMAN        NOT AVBL
SONORA         PTCLDY    84  55  37 E8        30.15S
OZONA          FAIR      84  52  32 E9        30.14S
BRADY          CLEAR     82  63  51 NE7       30.11S
$$

TEXAS PANHANDLE/OKLAHOMA PANHANDLE

CITY           SKY/WX    TMP DP  RH WIND       PRES   REMARKS
AMARILLO       CLEAR     73  58  59 SE10      30.23S
BORGER         PTCLDY    77  53  43 S12       30.19F
CANADIAN       PTCLDY    76  55  46 S7        30.18R
DALHART        CLOUDY    75  57  53 S16       30.21S
DUMAS          MOCLDY    73  57  56 S14       30.20F
GUYMON         NOT AVBL
HEREFORD       PTCLDY    73  64  73 SE13      30.23S
PAMPA          PTCLDY    74  51  44 S12G17    30.22S
PERRYTON       CLOUDY    76  50  39 S12       30.18F
$$

SOUTHERN PANHANDLE/SOUTH PLAINS/ROLLING PLAINS

CITY           SKY/WX    TMP DP  RH WIND       PRES   REMARKS
LUBBOCK        MOCLDY    73  62  68 SE9       30.21S
SNYDER         MOCLDY    77  63  62 E9        30.17S
CHILDRESS      CLEAR     79  54  41 SE6       30.18S
SEMINOLE       CLOUDY    71  62  73 SW6       30.21S
$$

PERMIAN BASIN

CITY           SKY/WX    TMP DP  RH WIND       PRES   REMARKS
MIDLAND        MOCLDY    79  60  52 SE8       30.16S
ODESSA         MOCLDY    77  59  53 SE7       30.17S
WINK           CLOUDY    78  61  55 E7        30.14S
$$

FAR WEST/SOUTHWEST MOUNTAINS/TRANS PECOS

CITY           SKY/WX    TMP DP  RH WIND       PRES   REMARKS
ALPINE         CLOUDY    73  55  52 SE10      30.27S
DRYDEN           N/A     85  53  33 SE12      30.10S
EL PASO        CLOUDY    72  65  78 SE8       30.16S
FORT STOCKTON  CLOUDY    78  55  44 SE10      30.15R
GUADALUPE PASS CLOUDY    62  62 100 NE23        N/A  FOG
MARFA          CLOUDY    72  55  56 E9        30.25S
PECOS          CLOUDY    77  61  56 E9        30.12S
$$

DALLAS/FORT WORTH METROPLEX

CITY           SKY/WX    TMP DP  RH WIND       PRES   REMARKS
DFW AIRPORT    PTCLDY    83  46  27 NE9       30.10S
FTW MEACHAM    CLEAR     85  46  25 NE10      30.10S
DAL-EXECUTIVE  CLEAR     85  45  24 NE8       30.10S
GRAND PRAIRIE  CLEAR     84  43  23 MISG      30.11S
ADDISON        CLEAR     82  46  28 NE9       30.11S
MESQUITE       CLEAR     82  45  26 N6        30.10S
LANCASTER      CLEAR     82  45  26 NE9       30.10S
$$

NORTH CENTRAL TEXAS

CITY           SKY/WX    TMP DP  RH WIND       PRES   REMARKS
SHRMAN/DENISON CLEAR     77  52  40 E5        30.15S
GAINESVILLE    CLEAR     76  52  42 NE7       30.16S
BRIDGEPORT     CLEAR     81  44  27 E5        30.14S
DENTON         CLEAR     80  50  34 NE10      30.11F
WAXAHACHIE     CLEAR     83  41  23 NE7       30.11S
GRANBURY       CLEAR     85  50  30 NE5       30.11R
$$

WESTERN NORTH TEXAS

CITY           SKY/WX    TMP DP  RH WIND       PRES   REMARKS
WICHITA FALLS  CLEAR     81  49  32 E8        30.13S
VERNON         CLEAR     82  48  30 E7        30.15R
BRECKENRIDGE   PTCLDY    86  56  35 NE6       30.11R
COMANCHE       PTCLDY    83  62  48 E8        30.11S
$$

CENTRAL AND SOUTH CENTRAL TEXAS

CITY           SKY/WX    TMP DP  RH WIND       PRES   REMARKS
AUSTIN/BERGSTM MOCLDY    85  69  58 NE13      30.04R
WACO           CLEAR     85  58  39 NE9       30.06S
HILLSBORO      CLEAR     84  49  29 NE9       30.09R
TEMPLE         PTCLDY    84  61  45 NE9G17    30.06S
KILLEEN-GRAY   PTCLDY    86  64  48 NE14      30.07S
FORT HOOD      MOCLDY    87  65  47 N7        30.07S
GEORGETOWN     CLEAR     84  68  58 MISG      30.05F
LAGO VISTA     FAIR      84  67  57 E10       30.08S
SAN MARCOS     PTCLDY    88  66  48 NE14      30.04R
NEW BRAUNFELS  PTCLDY    89  65  44 NE12      30.02R
RANDOLPH AFB   CLEAR     88  64  45 NE10      30.04R
SAN ANTONIO    PTCLDY    90  62  39 NE9       30.04R
STINSON        CLEAR     90  63  40 NE10      30.01R
PLEASANTON     NOT AVBL
LA GRANGE      PTCLDY    85  74  68 N5        30.01S
GIDDINGS       PTCLDY    83  71  65 NE5       30.07S
$$

EAST TEXAS

CITY           SKY/WX    TMP DP  RH WIND       PRES   REMARKS
PARIS          CLEAR     75  54  46 NE5       30.15S
CLARKSVILLE    NOT AVBL
TYLER          CLEAR     80  52  37 N7        30.10S
LONGVIEW       CLEAR     80  50  34 NE5       30.09S
PALESTINE      CLEAR     81  56  41 NE7       30.09S
NACOGDOCHES    CLEAR     82  54  36 NE3       30.08R
$$

TEXAS HILL COUNTRY AND EDWARDS PLATEAU

CITY           SKY/WX    TMP DP  RH WIND       PRES   REMARKS
LLANO          CLEAR     86  66  51 E7        30.10R
HORSESHOE BAY  LGT RAIN  76  69  80 CALM      30.07R
KERRVILLE      CLEAR     84  63  48 E3        30.09S
FREDERICKSBRG  PTCLDY    82  63  52 E5        30.10R
ROCKSPRINGS    PTCLDY    82  61  47 E3        30.14R
HONDO          PTCLDY    90  59  35 E12       30.05R
UVALDE         CLEAR     91  62  38 SE6       30.04R
DEL RIO        PTCLDY    86  61  42 SE5       30.03S
$$

SOUTHEAST TEXAS

CITY           SKY/WX    TMP DP  RH WIND       PRES   REMARKS
COLLEGE STN    CLEAR     84  66  54 NE10      30.04R
CALDWELL       CLEAR     84  66  54 NE3       30.07R
CROCKETT       CLEAR     82  64  54 NE6       30.09S
BRENHAM        CLEAR     86  69  55 NE5       30.04R
HUNTSVILLE     CLEAR     84  64  50 VRB6      30.05R
CONROE         CLEAR     82  66  58 N5        30.04R
HOUSTON BUSH   PTCLDY    85  69  58 NE12      30.02R
HOUSTON HOBBY  PTCLDY    86  71  60 NE14      30.00R
PERLAND        PTCLDY    86  73  65 NE10      30.01F
WHARTON        CLEAR     81  70  69 E9        30.01R
$$

THE UPPER TEXAS COAST

CITY           SKY/WX    TMP DP  RH WIND       PRES   REMARKS
ORANGE         CLEAR     81  66  61 N5        30.03S
PORT ARTHUR    CLEAR     83  66  56 N12       30.01R
GALVESTON      MOCLDY    82  76  81 E12       30.01S
ANGLETON         N/A     80  73  79 NE8       30.00R
BAY CITY       PTCLDY    86  76  72 SE3       29.99R
$$

TEXAS COASTAL BEND, RIO GRANDE PLAINS DEEP SOUTH TEXAS

CITY           SKY/WX    TMP DP  RH WIND       PRES   REMARKS
VICTORIA       PTCLDY    86  70  58 NE7       29.99S
BEEVILLE       FAIR      90  63  41 E7        29.99S
ROCKPORT       PTCLDY    84  73  69 SE9       29.99R
PORT ARANSAS   PTCLDY    84  72  67 E6        29.99S
PORT LAVACA    NOT AVBL
CORPUS CHRISTI MOCLDY    85  68  56 E16       29.99S
KINGSVILLE NAS MOCLDY    86  68  54 E13       30.00R
COTULLA        PTCLDY    90  64  42 E6        30.00S
LAREDO         PTCLDY    89  62  40 E8        30.03R
BROWNSVILLE    PTCLDY    85  74  69 NE12G20   29.97R
PORT ISABEL    NOT AVBL
HEBBRONVILLE   CLEAR     86  61  43 E9        30.03S
MCALLEN        PTCLDY    85  70  60 E16       29.99R
WESLACO        PTCLDY    84  70  61 NE13      29.98R
FALFURRIAS     CLEAR    N/A N/A N/A E7        30.00R
EDINBURG       CLEAR     86  69  57 NE8       29.99S
$$



USA.gov is the U.S. government's official web portal to all federal, state and local government web resources and services.